[[{"header":{"parameterUnit":"m.s-1","parameterCategory":1,"la1":30.2991,"la2":30.254,"lo1":-89.0895,"lo2":-89.0444,"dy":0.0017,"dx":0.0017,"nx":28,"ny":28,"refTime":"2024-10-21T09:00:00:Z","depth":0,"parameterNumber":2,"parameterNumberName":"U-component_of_WINDS"},"data":[0,0,0,0,0,0,0,0,0,0,0,0,0,0,0,0,0,0,0,0,0,0,0,0,0,0,0,0,0,0,0,0,0,0,0,0,0,0,0,0,0,0,0,0,0,0,0,0,0,0,0,0,0,0,0,0,0,0,-1.2784,-1.2783,0,-1.2721,-1.272,-1.2719,-1.262,-1.2618,-1.2616,-1.2614,-1.255,-1.255,-1.255,0,0,0,0,0,0,0,0,0,0,0,0,0,-1.2822,-1.2822,-1.2784,-1.2783,-1.2783,-1.2721,-1.272,-1.2719,-1.262,-1.2618,-1.2615,-1.2613,-1.255,-1.255,-1.255,0,0,0,0,0,0,0,0,0,0,0,0,0,-1.2787,-1.2822,-1.2784,-1.2726,-1.272,-1.2721,-1.272,-1.2719,-1.262,-1.2618,-1.2615,-1.2612,-1.255,-1.255,-1.255,-1.2604,0,0,-1.255,-1.255,0,0,0,0,0,0,0,0,-1.2789,-1.2786,-1.2735,-1.273,-1.2723,-1.2675,-1.271,-1.268,-1.2621,-1.2658,-1.2614,-1.2611,-1.2594,-1.259,-1.2584,-1.2601,-1.2598,-1.255,-1.255,-1.255,-1.255,0,0,0,0,0,0,0,-1.2792,-1.2788,-1.2759,-1.2734,-1.2727,-1.2703,-1.2695,-1.2704,-1.2642,-1.2655,-1.2647,-1.2641,-1.259,-1.2585,-1.2582,-1.2597,-1.255,-1.255,-1.255,-1.255,-1.2657,-1.2659,0,0,0,0,0,0,-1.2802,-1.279,-1.2761,-1.2757,-1.275,-1.2705,-1.2696,-1.2693,-1.2642,-1.2631,-1.2643,-1.2637,-1.2586,-1.2582,-1.2579,-1.264,-1.255,-1.255,-1.255,-1.2654,-1.2657,-1.266,0,0,0,0,0,0,-1.2804,-1.2801,-1.2763,-1.2772,-1.2765,-1.2707,-1.2705,-1.2693,-1.2687,-1.2633,-1.2622,-1.2649,-1.2584,-1.258,-1.2599,-1.2636,-1.255,-1.255,-1.265,-1.2655,-1.2659,-1.276,0,0,0,0,0,0,-1.2805,-1.2802,-1.2821,-1.2773,-1.2765,-1.2784,-1.2707,-1.2694,-1.2688,-1.2678,-1.2635,-1.2625,-1.2581,-1.2599,-1.2599,-1.2634,-1.255,-1.2647,-1.2652,-1.2657,-1.2753,-1.2768,-1.278,0,0,0,0,0,-1.2807,-1.2852,-1.2822,-1.2819,-1.2788,-1.2786,-1.2781,-1.2729,-1.2691,-1.271,-1.2676,-1.2627,-1.2632,-1.2602,-1.2601,-1.2637,-1.2644,-1.2651,-1.2657,-1.2747,-1.2765,-1.2779,0,0,0,0,0,0,-1.2905,-1.2844,-1.2811,-1.2841,-1.282,-1.2769,-1.2791,-1.2749,-1.2738,-1.2729,-1.2666,-1.2657,-1.2685,-1.2663,-1.263,-1.2687,-1.2631,-1.2637,-1.27,-1.2716,-1.2729,-1.2734,-1.255,0,0,0,0,0,-1.2931,-1.2934,-1.288,-1.2913,-1.2903,-1.285,-1.2847,-1.2809,-1.2784,-1.2774,-1.2741,-1.2719,-1.2716,-1.2715,-1.2709,-1.275,-1.274,-1.2774,-1.2788,-1.2799,-1.2805,-1.2827,-1.2842,-1.2681,-1.2681,-1.2681,0,0,-1.2983,-1.295,-1.2955,-1.2932,-1.291,-1.2916,-1.2842,-1.2851,-1.2855,-1.2775,-1.2792,-1.2767,-1.2738,-1.277,-1.2782,-1.2752,-1.2847,-1.2807,-1.2816,-1.2816,-1.2835,-1.285,-1.2864,-1.2686,-1.2685,-1.2684,0,0,-1.308,-1.3056,-1.308,-1.3061,-1.3029,-1.2994,-1.3,-1.2956,-1.2937,-1.2952,-1.2894,-1.2898,-1.2893,-1.2876,-1.2866,-1.2961,-1.2916,-1.2961,-1.3029,-1.3051,-1.3064,-1.3075,-1.3109,-1.3122,-1.2967,-1.2967,-1.2967,0,-1.3149,-1.3154,-1.3098,-1.3111,-1.3103,-1.3032,-1.3057,-1.3041,-1.301,-1.3007,-1.2974,-1.2968,-1.2944,-1.2971,-1.2994,-1.2988,-1.2994,-1.2965,-1.3066,-1.3077,-1.3086,-1.3118,-1.3131,-1.2973,-1.2972,-1.2972,-1.2971,0,-1.3241,-1.3246,-1.3269,-1.3241,-1.3236,-1.3255,-1.3203,-1.3205,-1.3168,-1.3137,-1.3155,-1.3123,-1.311,-1.3114,-1.3078,-1.3137,-1.3119,-1.3078,-1.302,-1.3108,-1.3137,-1.3149,-1.2981,-1.2979,-1.2977,-1.2976,0,0,-1.3396,-1.3339,-1.3349,-1.3336,-1.3297,-1.33,-1.3317,-1.3305,-1.3308,-1.329,-1.3303,-1.3302,-1.3264,-1.3253,-1.3215,-1.3235,-1.3313,-1.319,-1.3189,-1.3215,-1.3377,-1.3408,-1.3423,-1.3283,-1.3285,-1.3287,-1.3379,0,-1.3486,-1.3511,-1.3462,-1.3499,-1.3503,-1.3438,-1.3453,-1.3432,-1.3403,-1.3404,-1.3372,-1.3373,-1.3322,-1.3316,-1.3332,-1.33,-1.3345,-1.3293,-1.3296,-1.3297,-1.3305,-1.3438,-1.3471,-1.356,-1.339,-1.3392,-1.3394,0,-1.3594,-1.3581,-1.3619,-1.358,-1.358,-1.3594,-1.358,-1.3581,-1.3556,-1.3534,-1.3524,-1.348,-1.3495,-1.344,-1.3461,-1.3427,-1.3426,-1.3411,-1.3413,-1.3411,-1.335,-1.344,-1.3586,-1.36,-1.3411,-1.3409,-1.3408,0,-1.3704,-1.3697,-1.3718,-1.371,-1.3665,-1.3676,-1.3659,-1.3631,-1.3628,-1.3616,-1.3613,-1.3603,-1.3598,-1.3592,-1.3547,-1.3511,-1.3574,-1.3515,-1.3557,-1.3559,-1.3573,-1.3572,-1.3721,-1.3573,-1.3572,-1.3572,-1.3572,0,-1.3809,-1.3835,-1.3768,-1.3781,-1.3809,-1.3754,-1.3782,-1.3758,-1.3735,-1.3743,-1.3686,-1.3696,-1.3636,-1.3639,-1.3604,-1.3627,-1.3625,-1.3609,-1.3599,-1.3614,-1.3616,-1.3612,-1.3604,-1.3576,-1.3575,-1.3574,-1.3573,0,-1.3937,-1.3893,-1.3912,-1.3869,-1.3859,-1.3881,-1.3844,-1.3856,-1.3824,-1.3836,-1.3836,-1.3787,-1.3788,-1.3743,-1.3735,-1.3712,-1.375,-1.373,-1.3759,-1.3752,-1.3797,-1.3794,-1.3948,-1.3966,-1.3806,-1.3808,-1.3809,0,-1.4006,-1.4025,-1.3984,-1.3985,-1.397,-1.3973,-1.397,-1.3917,-1.3916,-1.3891,-1.3906,-1.3903,-1.3897,-1.3902,-1.3867,-1.3861,-1.384,-1.3894,-1.3838,-1.3853,-1.3841,-1.3841,-1.3843,-1.3906,-1.3908,-1.391,-1.3911,0,-1.4135,-1.4113,-1.4109,-1.41,-1.4097,-1.4087,-1.4073,-1.4078,-1.402,-1.4022,-1.4023,-1.4019,-1.4011,-1.4009,-1.3997,-1.3979,-1.3937,-1.3929,-1.3939,-1.3953,-1.397,-1.3962,-1.3791,-1.3925,-1.3924,-1.3923,-1.3922,-1.3922,-1.4236,-1.4249,-1.4223,-1.4222,-1.4207,-1.4195,-1.4204,-1.4175,-1.4175,-1.4164,-1.4134,-1.414,-1.4117,-1.4097,-1.4084,-1.4089,-1.4062,-1.4075,-1.4079,-1.4083,-1.4092,-1.397,-1.4086,-1.4086,-1.4085,-1.4085,-1.4085,0,-1.4362,-1.4342,-1.4342,-1.4324,-1.4324,-1.4284,-1.4267,-1.427,-1.4276,-1.4258,-1.4255,-1.4257,-1.4255,-1.4221,-1.4215,-1.4226,-1.4206,-1.4226,-1.4225,-1.4222,-1.4116,-1.4108,-1.4243,-1.4243,-1.4243,-1.4243,-1.4243,-1.4243,-1.4427,-1.4449,-1.4424,-1.4438,-1.4419,-1.4424,-1.4418,-1.4409,-1.4394,-1.4399,-1.4397,-1.4375,-1.4351,-1.4344,-1.4342,-1.4332,-1.4333,-1.436,-1.4343,-1.4245,-1.4229,-1.4215,-1.4207,-1.436,-1.436,-1.4449,-1.445,-1.4451]},{"header":{"parameterUnit":"m.s-1","parameterCategory":1,"la1":30.2991,"la2":30.254,"lo1":-89.0895,"lo2":-89.0444,"dy":0.0017,"dx":0.0017,"nx":28,"ny":28,"refTime":"2024-10-21T09:00:00:Z","depth":0,"parameterNumber":3,"parameterNumberName":"V-component_of_WINDS"},"data":[0,0,0,0,0,0,0,0,0,0,0,0,0,0,0,0,0,0,0,0,0,0,0,0,0,0,0,0,0,0,0,0,0,0,0,0,0,0,0,0,0,0,0,0,0,0,0,0,0,0,0,0,0,0,0,0,0,0,1.2192,1.2192,0,1.2195,1.2195,1.2195,1.2264,1.2266,1.2268,1.227,1.2266,1.2264,1.2263,0,0,0,0,0,0,0,0,0,0,0,0,0,1.2244,1.2242,1.2192,1.2192,1.2193,1.2195,1.2195,1.2195,1.2264,1.2266,1.2269,1.2271,1.2267,1.2265,1.2262,0,0,0,0,0,0,0,0,0,0,0,0,0,1.2231,1.2242,1.2192,1.2228,1.2231,1.2195,1.2195,1.2195,1.2264,1.2266,1.2269,1.2272,1.2267,1.2265,1.2262,1.2191,0,0,1.2254,1.2253,0,0,0,0,0,0,0,0,1.2232,1.2229,1.2222,1.2225,1.2229,1.2232,1.2212,1.2193,1.2263,1.2251,1.227,1.2273,1.2252,1.2251,1.2245,1.2191,1.2191,1.2254,1.2252,1.2251,1.225,0,0,0,0,0,0,0,1.2232,1.2229,1.2193,1.2222,1.2226,1.2242,1.2243,1.2208,1.2236,1.2252,1.2257,1.2257,1.2254,1.2248,1.2246,1.2191,1.2254,1.2251,1.225,1.2249,1.2078,1.2075,0,0,0,0,0,0,1.2229,1.223,1.2193,1.2193,1.2237,1.2239,1.224,1.2228,1.2237,1.2241,1.2255,1.226,1.2251,1.2249,1.2246,1.2163,1.2251,1.2248,1.2247,1.2081,1.2078,1.2074,0,0,0,0,0,0,1.223,1.2225,1.2193,1.2213,1.221,1.2235,1.2221,1.2227,1.222,1.2239,1.2243,1.2243,1.2253,1.225,1.2205,1.2163,1.2247,1.2245,1.2084,1.208,1.2076,1.1996,0,0,0,0,0,0,1.2231,1.2225,1.2199,1.2212,1.2209,1.2153,1.2219,1.2225,1.2216,1.2223,1.2229,1.2232,1.2255,1.2208,1.2202,1.2161,1.2243,1.2088,1.2082,1.2077,1.2002,1.1989,1.1978,0,0,0,0,0,1.2233,1.2175,1.2198,1.2193,1.2177,1.215,1.2148,1.2177,1.2213,1.2186,1.2198,1.2232,1.217,1.2203,1.2197,1.2154,1.2091,1.2084,1.2078,1.2007,1.1992,1.1978,0,0,0,0,0,0,1.2155,1.2177,1.2202,1.2148,1.2147,1.2162,1.2129,1.216,1.2147,1.2154,1.2189,1.2189,1.2139,1.2143,1.2179,1.2086,1.2136,1.2128,1.2085,1.207,1.2058,1.2057,1.224,0,0,0,0,0,1.2132,1.2109,1.213,1.208,1.2078,1.2104,1.2093,1.2116,1.2116,1.2115,1.2124,1.212,1.21,1.2086,1.2068,1.2004,1.2005,1.1972,1.196,1.195,1.1942,1.1907,1.1892,1.2053,1.2053,1.2053,0,0,1.2082,1.2092,1.2076,1.2064,1.2066,1.2041,1.2103,1.2073,1.2055,1.211,1.2068,1.2075,1.2073,1.2018,1.1994,1.202,1.1898,1.1942,1.1934,1.1931,1.1899,1.1884,1.187,1.2048,1.2049,1.205,0,0,1.198,1.1986,1.1944,1.1946,1.1949,1.1967,1.1957,1.1968,1.1975,1.1935,1.1976,1.1953,1.1918,1.1915,1.1909,1.1808,1.1838,1.1801,1.1737,1.1704,1.1691,1.168,1.1642,1.1628,1.1794,1.1793,1.1793,0,1.1917,1.1883,1.1918,1.1887,1.188,1.1932,1.1889,1.1889,1.1885,1.1878,1.1908,1.1865,1.1868,1.1813,1.1788,1.1782,1.1771,1.1799,1.169,1.1679,1.167,1.1634,1.162,1.1789,1.1789,1.179,1.179,0,1.1806,1.1781,1.1747,1.1744,1.1734,1.1697,1.1726,1.1711,1.1735,1.175,1.1707,1.1713,1.1698,1.1687,1.1709,1.1635,1.1651,1.1685,1.1735,1.1649,1.1616,1.1603,1.1782,1.1784,1.1785,1.1786,0,0,1.165,1.1671,1.1657,1.1657,1.1665,1.1646,1.1611,1.1599,1.1585,1.1581,1.1551,1.1522,1.1554,1.1547,1.157,1.154,1.1459,1.1578,1.1579,1.1554,1.1375,1.1348,1.1332,1.148,1.1478,1.1476,1.1375,0,1.155,1.1493,1.1525,1.1463,1.144,1.149,1.146,1.1461,1.1474,1.1456,1.147,1.1447,1.1492,1.1488,1.1462,1.1474,1.1423,1.1482,1.1451,1.1449,1.1447,1.1315,1.1286,1.119,1.1363,1.136,1.1359,0,1.1425,1.1418,1.1354,1.1368,1.1359,1.1332,1.1323,1.1305,1.1307,1.1319,1.1312,1.1343,1.1308,1.1361,1.1313,1.1353,1.1342,1.1347,1.1344,1.1339,1.1397,1.1305,1.116,1.1145,1.1339,1.1341,1.1342,0,1.1316,1.1291,1.125,1.1248,1.1263,1.1243,1.1248,1.1253,1.1243,1.1235,1.1229,1.1217,1.1209,1.1198,1.1224,1.126,1.1172,1.1226,1.1178,1.1177,1.1155,1.1156,1.1004,1.1152,1.1152,1.1153,1.1153,0,1.1199,1.1157,1.1201,1.1175,1.113,1.1168,1.1121,1.1132,1.1136,1.1112,1.1155,1.1131,1.1168,1.1148,1.1168,1.1124,1.1121,1.1128,1.1133,1.1123,1.1121,1.1114,1.112,1.1149,1.115,1.115,1.1151,0,1.1069,1.1097,1.1055,1.1074,1.1078,1.1043,1.1059,1.1035,1.1052,1.1021,1.1016,1.1042,1.102,1.1046,1.1026,1.104,1.098,1.0997,1.098,1.0983,1.0933,1.0937,1.077,1.0749,1.0912,1.0911,1.0909,0,1.0991,1.0961,1.0977,1.0965,1.0968,1.0948,1.094,1.0976,1.0964,1.0966,1.0941,1.0924,1.0912,1.0874,1.089,1.0875,1.089,1.0833,1.0888,1.0878,1.0887,1.0887,1.0884,1.082,1.0818,1.0817,1.0815,0,1.0849,1.0866,1.0852,1.0844,1.0833,1.0827,1.0825,1.0812,1.085,1.0835,1.0815,1.0805,1.0786,1.0767,1.0757,1.0761,1.0793,1.0799,1.0786,1.0774,1.0765,1.0767,1.0947,1.0801,1.0803,1.0804,1.0805,1.0805,1.0742,1.0717,1.0725,1.0709,1.0712,1.0709,1.0688,1.0703,1.0688,1.0676,1.0698,1.0672,1.0676,1.0666,1.0666,1.0645,1.0669,1.0652,1.0647,1.0641,1.0633,1.0771,1.0643,1.0644,1.0644,1.0645,1.0645,0,1.0601,1.061,1.0595,1.0591,1.0578,1.0614,1.0613,1.0599,1.0576,1.0578,1.0566,1.0542,1.0525,1.0541,1.0526,1.0506,1.0521,1.0501,1.0501,1.0502,1.0613,1.0624,1.049,1.049,1.049,1.049,1.049,1.049,1.0526,1.0486,1.0503,1.0465,1.0473,1.0449,1.0446,1.0443,1.0445,1.0417,1.0404,1.0416,1.0423,1.0409,1.0395,1.04,1.0391,1.0366,1.0376,1.0479,1.0494,1.0508,1.0519,1.0364,1.0364,1.0266,1.0265,1.0264]}]]